{"data":{"norad_id":28129,"intl_designator":"2003-058A","name":"NAVSTAR 53 (USA 175)","alt_names":[],"object_type":"PAYLOAD","status":"ACTIVE","operator":null,"country":"US","launch_date":"2003-12-21","launch_site_code":"AFETR","launch_vehicle":null,"mission":null,"orbit_class":"UNKNOWN","rcs_meters":6.3095,"size_class":null,"mass_kg":null,"dimensions":null,"purposes":[],"wikipedia_slug":null,"has_3d_model":false,"image_url":null,"decayed_at":null,"tle_current":{"epoch":"2026-09-18T23:38:01.069440Z","epoch_age_seconds":149107,"freshness":"FRESH","line1":"1 28129U 03058A   26261.98473460 -.00000091  00000+0  00000+0 0  9995","line2":"2 28129  55.0787  19.8030 0000965 279.5326  80.4676  1.92678577166276","mean_motion":1.92678577,"eccentricity":9.65e-5,"inclination_deg":55.0787,"raan_deg":19.803,"arg_perigee_deg":279.5326,"mean_anomaly_deg":80.4676,"bstar":0,"rev_number":16627,"period_min":747.35864382058,"perigee_km":20899.347001377,"apogee_km":20904.612063868,"semimajor_km":27280.116532623,"source":"CELESTRAK","updated_at":"2026-09-20T09:00:13.594685Z"}}}